Stations météo

Publicité
Trappes, France (7145): Température de l'air & dewpoint: 12.12.2017 23:00:00 - 18.12.2017 23:00:00 (CET)Trappes, France (7145): Température de l'air 5cm: 12.12.2017 23:00:00 - 18.12.2017 23:00:00 (CET)Trappes, France (7145): Température de l'air -20cm & Température de l'air -100cm: 12.12.2017 23:00:00 - 18.12.2017 23:00:00 (CET)Trappes, France (7145): Vitesse du vent & gusts: 12.12.2017 23:00:00 - 18.12.2017 23:00:00 (CET)Trappes, France (7145): Direction du vent: 12.12.2017 23:00:00 - 18.12.2017 23:00:00 (CET)Trappes, France (7145): reduced air pressure: 12.12.2017 23:00:00 - 18.12.2017 23:00:00 (CET)Trappes, France (7145): visibility: 12.12.2017 23:00:00 - 18.12.2017 23:00:00 (CET)Trappes, France (7145): Ensoleillement: 12.12.2017 23:00:00 - 18.12.2017 23:00:00 (CET)Trappes, France (7145): Quantités de précipitations: 12.12.2017 23:00:00 - 18.12.2017 23:00:00 (CET)
Date & Time tt [°C] td [°C] tt 5cm [°C] tt -20cm [°C] tt -100cm [°C] ff [km/h] ff [knt] fx [km/h] fx [knt] dd ppp [hPa] vv [km] sd [min] rr [mm]
18.12.2017 23:00:00 - - - - - - - - - - - - - -
18.12.2017 22:00:00 3,3 2,3 1,3 5,9 8,5 6 3 14 7 NNW 1032,4 12 0 0,0
18.12.2017 21:00:00 4,2 2,7 2,9 5,9 8,5 8 5 14 8 NNW 1032,3 16 0 0,0
18.12.2017 20:00:00 4,7 3,0 3,0 6,0 8,5 6 4 12 7 NNW 1031,4 17 0 0,0
18.12.2017 19:00:00 5,2 3,2 2,5 6,0 8,5 5 3 11 6 NNW 1030,8 20 0 0,0
18.12.2017 18:00:00 5,4 2,9 3,4 6,0 8,5 4 2 17 9 NNW 1030,2 20 0 0,0
18.12.2017 17:00:00 6,1 3,1 4,6 5,9 8,5 8 4 21 11 N 1029,4 20 7 0,0
18.12.2017 16:00:00 6,8 3,0 6,3 5,9 8,5 13 7 28 15 N 1028,8 20 23 0,0
18.12.2017 15:00:00 7,0 3,1 6,9 5,8 8,5 18 10 33 18 NNE 1027,8 20 15 0,0
18.12.2017 14:00:00 7,1 3,3 7,3 5,8 8,5 13 7 29 16 N 1027,3 20 27 0,0
18.12.2017 13:00:00 7,2 3,6 7,1 5,7 8,5 12 7 29 16 NNE 1027,1 20 41 0,0
18.12.2017 12:00:00 6,7 3,7 7,4 5,7 8,5 18 10 35 19 NNE 1027,1 20 55 0,0
18.12.2017 11:00:00 6,2 3,9 5,8 5,7 8,5 14 8 32 18 N 1026,4 20 44 0,0
18.12.2017 10:00:00 5,9 3,9 5,0 5,7 8,5 18 10 32 17 N 1025,5 20 23 0,0
18.12.2017 09:00:00 5,7 4,0 4,5 5,6 8,5 12 7 33 18 N 1024,7 20 0 0,0
18.12.2017 08:00:00 6,3 4,1 5,2 5,6 8,5 16 9 41 22 N 1023,6 20 0 0,0
18.12.2017 07:00:00 8,2 6,8 7,6 5,5 8,5 16 9 36 19 N 1022,1 20 0 0,0
18.12.2017 06:00:00 8,7 8,4 7,9 5,5 8,5 11 6 24 13 NW 1021,3 20 0 0,0
18.12.2017 05:00:00 8,0 8,0 7,5 5,4 8,5 11 6 26 14 WNW 1021,2 14 0 0,4
18.12.2017 04:00:00 7,8 7,5 7,1 5,4 8,5 15 8 34 19 W 1021,1 4,5 0 0,0
18.12.2017 03:00:00 7,4 7,1 6,4 5,3 8,5 17 9 32 17 W 1021,6 3,2 0 0,5
18.12.2017 02:00:00 6,6 6,3 5,9 5,3 8,5 16 9 30 16 WSW 1022,3 2,4 0 2,4
18.12.2017 01:00:00 6,1 5,8 5,1 5,3 8,6 13 7 26 14 SW 1023,7 2,4 0 2,8
18.12.2017 00:00:00 5,1 5,0 4,4 5,2 8,5 13 7 26 14 SW 1024,7 3,5 0 0,4
17.12.2017 23:00:00 4,5 4,4 4,0 5,2 8,6 12 7 27 15 SSW 1025,6 3,1 0 0,0
17.12.2017 22:00:00 4,1 3,8 3,8 5,2 8,6 13 7 28 15 SSW 1026,3 3,1 0 0,2
17.12.2017 21:00:00 4,0 3,6 3,7 5,2 8,6 12 7 26 14 SSW 1026,7 6 0 0,0
17.12.2017 20:00:00 3,9 3,5 3,6 5,2 8,6 9 5 18 10 SSW 1027,4 8 0 0,0
17.12.2017 19:00:00 3,8 3,2 3,6 5,2 8,6 10 5 19 10 SSW 1027,6 8 0 0,0
17.12.2017 18:00:00 3,7 3,0 3,5 5,1 8,6 6 4 16 9 S 1027,6 10 0 0,0
17.12.2017 17:00:00 4,5 2,8 3,9 5,1 8,6 6 4 12 6 SSW 1027,9 20 0 0,0
17.12.2017 16:00:00 4,9 2,4 4,6 5,0 8,6 4 2 14 7 SW 1027,6 20 0 0,0
17.12.2017 15:00:00 5,4 1,9 6,0 4,9 8,6 5 3 13 7 SW 1026,9 20 24 0,0
17.12.2017 14:00:00 5,5 1,6 6,5 4,9 8,6 8 4 13 7 WNW 1027,2 20 49 0,0
17.12.2017 13:00:00 5,7 1,8 5,6 4,9 8,6 6 3 14 7 W 1027,3 20 46 0,0
17.12.2017 12:00:00 5,2 2,2 6,5 4,9 8,6 4 2 8 5 NNW 1027,6 20 60 0,0
17.12.2017 11:00:00 3,8 2,8 3,8 5,0 8,6 3 2 6 4 NNW 1027,6 15 60 0,0
17.12.2017 10:00:00 2,4 2,4 -0,1 5,0 8,6 2 1 5 3 NW 1027,5 7 31 0,0
17.12.2017 09:00:00 0,7 0,7 -1,1 5,0 8,6 4 2 5 3 W 1026,9 1,8 0 0,0
17.12.2017 08:00:00 0,9 0,8 -0,8 5,1 8,6 4 2 13 7 W 1026,2 0,2 0 0,0
17.12.2017 07:00:00 1,9 1,8 -0,2 5,1 8,6 4 2 9 5 WNW 1025,4 10 0 0,0
17.12.2017 06:00:00 1,8 1,5 -0,1 5,2 8,6 5 3 10 5 W 1024,7 9 0 0,0
17.12.2017 05:00:00 2,4 2,0 0,9 5,2 8,6 6 3 14 8 WNW 1024,3 20 0 0,0
17.12.2017 04:00:00 2,4 1,8 1,2 5,3 8,6 5 3 15 8 WNW 1023,9 20 0 0,0
17.12.2017 03:00:00 3,0 2,3 2,3 5,3 8,6 5 3 18 10 WNW 1023,9 20 0 0,6
17.12.2017 02:00:00 3,1 2,2 1,9 5,3 8,6 9 5 20 11 W 1023,2 20 0 0,0
17.12.2017 01:00:00 3,1 1,9 2,5 5,3 8,6 7 4 26 14 WNW 1023,3 20 0 0,2
17.12.2017 00:00:00 3,2 1,7 2,2 5,4 8,6 11 6 24 13 W 1023,0 20 0 0,0
16.12.2017 23:00:00 3,1 1,3 1,9 5,4 8,6 8 4 20 11 W 1023,2 20 0 0,0
16.12.2017 22:00:00 3,3 0,5 2,3 5,4 8,6 5 3 11 6 W 1023,1 20 0 0,0
16.12.2017 21:00:00 2,9 0,0 1,9 5,5 8,6 5 3 17 9 W 1022,8 20 0 0,0
16.12.2017 20:00:00 3,0 0,1 1,2 5,5 8,6 8 4 19 10 W 1022,6 20 0 0,0
16.12.2017 19:00:00 2,9 -0,2 0,9 5,5 8,6 5 3 15 8 W 1022,0 20 0 0,0
16.12.2017 18:00:00 3,6 0,1 1,6 5,6 8,6 5 3 11 6 W 1021,4 20 0 0,0
16.12.2017 17:00:00 4,4 0,0 2,0 5,5 8,6 6 3 19 10 WNW 1020,7 20 26 0,0
16.12.2017 16:00:00 5,1 0,1 4,9 5,5 8,6 9 5 29 16 NW 1019,8 20 38 0,0
16.12.2017 15:00:00 5,8 -0,3 5,7 5,5 8,6 17 9 29 16 NNW 1019,1 20 46 0,0
16.12.2017 14:00:00 5,5 1,0 5,6 5,4 8,6 11 6 29 16 NNW 1018,6 20 33 0,0
16.12.2017 13:00:00 5,2 1,7 5,2 5,4 8,7 13 7 35 19 NW 1018,4 20 34 0,0
16.12.2017 12:00:00 5,1 2,6 4,5 5,4 8,6 13 7 31 17 NW 1018,1 20 32 0,0
16.12.2017 11:00:00 4,1 2,6 3,3 5,4 8,7 12 6 22 12 NW 1017,8 20 6 0,0
16.12.2017 10:00:00 3,7 2,8 2,2 5,4 8,6 9 5 22 12 NW 1016,5 20 0 0,0
16.12.2017 09:00:00 3,5 2,6 2,6 5,4 8,6 10 6 26 14 NW 1015,4 20 0 0,0
16.12.2017 08:00:00 3,7 2,7 2,9 5,5 8,7 9 5 21 12 NW 1014,4 20 0 0,0
16.12.2017 07:00:00 3,5 2,5 2,2 5,4 8,6 10 5 20 11 NW 1013,4 20 0 0,0
16.12.2017 06:00:00 3,4 2,5 2,6 5,5 8,7 10 5 22 12 NNW 1012,5 20 0 0,0
16.12.2017 05:00:00 3,7 2,7 2,8 5,5 8,7 11 6 31 17 NW 1011,6 20 0 0,0
16.12.2017 04:00:00 3,8 2,8 2,8 5,5 8,7 11 6 24 13 NW 1010,7 19 0 0,0
16.12.2017 03:00:00 3,7 2,7 2,8 5,5 8,7 9 5 23 12 NW 1009,7 20 0 0,0
16.12.2017 02:00:00 4,0 3,0 3,6 5,5 8,7 13 7 27 14 NW 1008,7 13 0 0,0
16.12.2017 01:00:00 4,0 2,8 3,2 5,5 8,7 13 7 32 17 NW 1007,8 20 0 0,0
16.12.2017 00:00:00 3,9 2,9 3,4 5,5 8,7 13 7 33 18 NW 1006,9 18 0 0,0
15.12.2017 23:00:00 4,0 2,8 3,3 5,5 8,7 12 6 33 18 NW 1005,7 20 0 0,2
15.12.2017 22:00:00 3,8 2,5 3,2 5,6 8,7 14 8 31 17 NW 1004,7 19 0 0,0
15.12.2017 21:00:00 3,8 2,2 3,3 5,6 8,7 16 8 36 20 NW 1004,0 20 0 0,0
15.12.2017 20:00:00 3,9 2,4 3,3 5,6 8,7 16 8 35 19 NW 1002,8 20 0 0,0
15.12.2017 19:00:00 3,9 2,6 3,4 5,6 8,7 17 9 33 18 NNW 1001,6 20 0 0,0
15.12.2017 18:00:00 3,8 2,8 3,0 5,5 8,7 17 9 33 18 NNW 1000,5 20 0 0,0
15.12.2017 17:00:00 3,5 2,6 3,0 5,5 8,7 16 9 35 19 NNW 999,0 25 0 0,6
15.12.2017 16:00:00 4,1 2,9 3,7 5,5 8,7 19 10 40 21 NW 997,2 10 0 0,6
15.12.2017 15:00:00 5,4 3,4 4,3 5,4 8,7 17 9 34 19 WSW 996,1 20 6 0,0
15.12.2017 14:00:00 4,7 3,4 4,2 5,4 8,7 18 10 40 22 WSW 996,4 10 0 1,0
15.12.2017 13:00:00 5,5 3,0 4,6 5,4 8,7 19 10 44 24 SW 996,4 20 16 0,0
15.12.2017 12:00:00 4,9 3,1 4,2 5,4 8,7 21 11 38 20 WSW 997,0 20 4 0,2
15.12.2017 11:00:00 4,8 2,7 4,4 5,4 8,7 20 11 39 21 SW 997,5 20 38 0,0
15.12.2017 10:00:00 3,9 2,3 2,9 5,4 8,7 19 10 34 19 WSW 997,2 20 38 0,0
15.12.2017 09:00:00 3,4 1,9 2,0 5,5 8,7 14 7 31 17 SW 997,3 20 1 0,0
15.12.2017 08:00:00 3,2 1,7 2,1 5,5 8,7 11 6 34 18 WSW 997,1 20 0 0,0
15.12.2017 07:00:00 3,8 1,8 2,8 5,5 8,7 13 7 32 17 W 996,8 20 0 0,0
15.12.2017 06:00:00 4,2 2,4 3,1 5,5 8,7 18 10 39 21 W 996,6 20 0 0,0
15.12.2017 05:00:00 4,8 3,3 3,6 5,5 8,7 18 10 46 25 W 995,9 20 0 0,0
15.12.2017 04:00:00 4,5 2,8 3,7 5,6 8,7 21 11 48 26 W 995,1 20 0 0,2
15.12.2017 03:00:00 4,3 2,3 3,3 5,6 8,7 22 12 48 26 WSW 994,8 20 0 0,0
15.12.2017 02:00:00 3,5 1,9 2,9 5,6 8,7 20 11 38 20 SW 994,7 20 0 0,0
15.12.2017 01:00:00 3,2 1,7 2,5 5,6 8,7 15 8 34 18 SW 995,4 20 0 0,0
15.12.2017 00:00:00 3,0 1,5 1,8 5,7 8,7 19 10 39 21 WSW 995,5 20 0 0,0
14.12.2017 23:00:00 3,2 1,7 1,9 5,7 8,7 19 10 32 17 WSW 995,4 20 0 0,0
14.12.2017 22:00:00 3,8 2,2 3,0 5,7 8,7 18 10 35 19 WSW 995,4 20 0 0,0
14.12.2017 21:00:00 4,4 2,6 2,9 5,8 8,7 16 9 32 18 W 995,1 20 0 0,0
14.12.2017 20:00:00 3,5 2,5 2,8 5,8 8,7 10 6 24 13 WSW 994,6 20 0 0,0
14.12.2017 19:00:00 3,0 1,8 2,0 5,8 8,7 13 7 24 13 SW 995,1 20 0 0,0
14.12.2017 18:00:00 3,3 1,8 2,3 5,8 8,7 23 12 44 24 WSW 995,6 9 0 2,6
14.12.2017 17:00:00 5,5 4,1 4,4 5,8 8,7 10 6 36 20 SW 995,7 20 0 0,0
14.12.2017 16:00:00 6,1 4,1 5,1 5,7 8,7 10 5 30 16 SW 996,8 20 0 0,2
14.12.2017 15:00:00 6,2 3,7 5,1 5,7 8,8 19 10 41 22 WSW 997,7 12 0 0,0
14.12.2017 14:00:00 6,7 3,3 6,4 5,7 8,7 22 12 43 23 WSW 998,9 20 0 0,0
14.12.2017 13:00:00 6,6 3,6 4,9 5,7 8,7 17 9 41 22 WSW 999,9 20 0 0,2
14.12.2017 12:00:00 5,2 3,7 4,4 5,7 8,7 11 6 45 24 SW 1001,3 8 0 0,6
14.12.2017 11:00:00 5,7 2,3 4,4 5,7 8,7 24 13 49 26 WSW 1002,1 15 3 0,0
14.12.2017 10:00:00 5,0 1,7 3,5 5,7 8,8 22 12 41 22 WSW 1002,6 15 28 0,0
14.12.2017 09:00:00 4,3 1,7 3,2 5,8 8,8 17 9 38 21 SW 1002,6 20 0 0,0
14.12.2017 08:00:00 4,2 1,7 3,0 5,8 8,7 19 11 36 20 SW 1003,2 19 0 0,0
14.12.2017 07:00:00 4,4 1,9 3,1 5,9 8,8 19 11 43 23 WSW 1003,6 30 0 0,0
14.12.2017 06:00:00 4,2 1,9 2,7 5,9 8,8 15 8 29 16 SW 1003,4 20 0 0,0
14.12.2017 05:00:00 4,3 1,5 3,0 6,0 8,8 13 7 33 18 SW 1003,4 20 0 0,0
14.12.2017 04:00:00 5,0 1,5 3,7 6,0 8,8 14 8 42 23 WSW 1003,3 20 0 0,0
14.12.2017 03:00:00 5,7 1,2 4,5 6,0 8,8 20 11 53 28 W 1002,4 20 0 0,0
14.12.2017 02:00:00 6,3 2,7 5,2 6,0 8,8 27 15 59 32 W 1001,0 20 0 0,0
14.12.2017 01:00:00 6,1 4,3 5,2 6,0 8,8 23 13 59 32 W 999,8 6 0 1,6
14.12.2017 00:00:00 7,5 5,5 6,0 5,9 8,8 22 12 47 25 WSW 998,5 20 0 0,2
13.12.2017 23:00:00 7,3 4,4 5,7 5,9 8,8 17 9 42 23 WSW 998,7 20 0 0,0
13.12.2017 22:00:00 7,6 4,9 6,4 5,8 8,8 16 9 41 22 W 998,7 20 0 0,0
13.12.2017 21:00:00 8,5 5,9 7,4 5,7 8,8 21 11 47 25 W 998,2 20 0 1,1
13.12.2017 20:00:00 8,8 8,3 8,2 5,6 8,8 14 8 38 20 WSW 997,6 3,9 0 2,8
13.12.2017 19:00:00 8,7 8,1 8,0 5,6 8,8 21 11 41 22 SW 997,8 5 0 1,4
13.12.2017 18:00:00 8,5 7,7 7,7 5,5 8,8 22 12 53 29 SSW 998,6 12 0 0,2
13.12.2017 17:00:00 8,1 7,5 7,5 5,4 8,8 17 9 39 21 SSW 1000,6 7 0 1,4
13.12.2017 16:00:00 8,0 7,1 7,5 5,3 8,8 18 10 35 19 SSW 1002,1 13 0 0,0
13.12.2017 15:00:00 8,2 6,7 7,6 5,2 8,9 18 10 41 22 SSW 1003,1 18 0 0,0
13.12.2017 14:00:00 7,8 6,7 7,2 5,1 8,9 19 10 32 17 SW 1004,3 18 0 0,0
13.12.2017 13:00:00 7,2 6,8 6,9 5,1 8,9 16 9 34 18 SW 1005,6 2,5 0 0,2
13.12.2017 12:00:00 6,9 6,3 6,0 5,0 8,9 16 9 36 19 WSW 1006,3 20 0 0,0
13.12.2017 11:00:00 6,1 5,7 5,1 5,0 8,9 17 9 37 20 SW 1006,7 10 0 0,2
13.12.2017 10:00:00 5,4 5,0 4,7 5,0 8,9 19 10 48 26 SW 1007,3 4,0 0 1,5
13.12.2017 09:00:00 5,1 4,5 4,5 4,9 8,9 23 12 53 29 SW 1007,7 7 0 3,4
13.12.2017 08:00:00 4,9 4,2 3,9 4,9 8,9 26 14 52 28 SSW 1007,7 3,4 0 0,8
13.12.2017 07:00:00 4,4 3,2 3,8 4,9 8,9 21 11 51 28 SSW 1009,1 10 0 0,4
13.12.2017 06:00:00 4,3 2,8 3,1 4,9 8,9 20 11 42 23 SSW 1010,3 20 0 0,0
13.12.2017 05:00:00 3,5 2,3 2,6 4,9 8,9 17 9 34 18 SSW 1011,8 20 0 0,0
13.12.2017 04:00:00 2,8 1,8 2,0 4,9 8,9 13 7 30 16 S 1013,2 20 0 0,0
13.12.2017 03:00:00 2,4 1,5 1,9 5,0 8,9 15 8 28 15 SSW 1013,9 20 0 0,0
13.12.2017 02:00:00 2,6 1,7 2,1 5,0 8,9 11 6 23 12 S 1014,6 19 0 0,0
13.12.2017 01:00:00 2,8 1,9 2,5 5,0 8,9 11 6 27 15 SSW 1015,1 17 0 0,0
13.12.2017 00:00:00 3,1 1,9 2,5 5,0 8,9 12 6 25 13 SSW 1015,7 20 0 0,0
12.12.2017 23:00:00 3,1 1,6 2,0 5,1 8,9 12 6 24 13 SSW 1015,9 20 0 0,0

tt = Température de l'air
td = dewpoint
tt 5cm = Température de l'air 5cm
tt -20cm = Température de l'air -20cm
tt -100cm = Température de l'air -100cm
ff = Vitesse du vent
fx = gusts
dd = Direction du vent
ppp = reduced air pressure
vv = visibility
sd = Ensoleillement
rr = Quantités de précipitations

stations d'obs. à proximité